Location: N�rnberg
(49.4489°N, 11.0797°E)
Time: 20:47:51
(UTC+01:00)

ISS - Visible Passes

Search period start: 27 February 2021 00:00
Search period end: 09 March 2021 00:00
Orbit: 417 x 422 km, 51.6° (Epoch: 27 February)

Date Brightness Start Highest point End Pass type
(mag) Time Alt. Az. Time Alt. Az. Time Alt. Az.
27 Feb -3.2 04:52:06 57° ESE 04:52:06 57° ESE 04:55:03 10° ENE visible
27 Feb -3.5 06:25:15 10° W 06:28:35 58° N 06:31:55 10° ENE visible
28 Feb -0.9 04:06:30 18° E 04:06:30 18° E 04:07:32 10° ENE visible
28 Feb -3.6 05:39:28 28° W 05:41:04 65° N 05:44:26 10° ENE visible
01 Mar -3.6 04:53:50 70° NNE 04:53:50 70° NNE 04:56:57 10° ENE visible
02 Mar -1.2 04:08:10 22° ENE 04:08:10 22° ENE 04:09:28 10° ENE visible
02 Mar -3.4 05:41:07 22° WNW 05:43:04 56° N 05:46:24 10° E visible
03 Mar -3.5 04:55:26 58° NNW 04:55:31 58° N 04:58:51 10° ENE visible
04 Mar -1.5 04:09:45 25° ENE 04:09:45 25° ENE 04:11:21 10° ENE visible
04 Mar -3.5 05:42:42 18° WNW 05:45:01 65° N 05:48:23 10° E visible
05 Mar -3.5 04:57:02 52° NNW 04:57:29 58° N 05:00:50 10° E visible
06 Mar -1.8 04:11:23 29° ENE 04:11:23 29° ENE 04:13:16 10° E visible
06 Mar -3.8 05:44:20 16° WNW 05:46:54 84° SSW 05:50:16 10° ESE visible
07 Mar -3.8 04:58:43 53° WNW 04:59:23 77° NNE 05:02:46 10° ESE visible
08 Mar -2.1 04:13:08 34° E 04:13:08 34° E 04:15:13 10° E visible
08 Mar -3.3 05:46:06 15° W 05:48:38 44° SSW 05:51:51 10° SE visible
